Weather History for KBVN - March, 2014

Change the Weather History Date:

Monday, March 17, 2014

  Actual Average (KOFK) Record (KOFK)
Temperature  
Mean Temperature 47 °F 38 °F  
Max Temperature 66 °F 49 °F 84 °F (2012)
Min Temperature 29 °F 27 °F -9 °F (1906)
Degree Days  
Heating Degree Days 18 27  
Month to date heating degree days 517  
Since 1 July heating degree days 5610  
Cooling Degree Days 0 0  
Month to date cooling degree days 0  
Year to date cooling degree days 0  
Moisture  
Dew Point 20 °F    
Average Humidity 40    
Maximum Humidity 57    
Minimum Humidity 20    
Precipitation  
Precipitation 0.00 in 0.06 in 1.49 in (1987)
Month to date precipitation 0.81  
Year to date precipitation 2.16  
Snow  
Snow 0.00 in 0.10 in - ()
Month to date snowfall 2.9  
Since 1 July snowfall 25.7  
Snow Depth -    
Sea Level Pressure  
Sea Level Pressure 29.55 in    
Wind  
Wind Speed 11 mph (South)    
Max Wind Speed 21 mph    
Max Gust Speed 26 mph    
Visibility 10 miles    
Events      
T = Trace of Precipitation, MM = Missing Value Source: NWS Daily Summary

Daily Weather History Graph

Daily Weather History Graph

Search for Another Location

Airport or City:

Trip Planner

Search our weather history database for the weather conditions in past years. The results will help you decide how hot, cold, wet, or windy it might be!

Date:

Astronomy

Mar. 17, 2014 Rise Set
Actual Time 7:40 AM CDT 7:41 PM CDT
Civil Twilight 7:12 AM CDT 8:08 PM CDT
Nautical Twilight 6:40 AM CDT 8:41 PM CDT
Astronomical Twilight 6:07 AM CDT 9:14 PM CDT
Moon 9:00 PM CDT (3/17) 7:55 AM CDT (3/17)
Length of Visible Light 12h 55m
Length of Day
12h 00m
Full, 99% of the Moon is Illuminated
Mar 17
Full
Mar 23
Last Quarter
Mar 30
New
Apr 7
First Quarter
Apr 15
Full

Hourly Weather History & Observations

Time (CDT) Temp. Windchill Dew Point Humidity Pressure Visibility Wind Dir Wind Speed Gust Speed Precip Events Conditions
12:15 AM 29.1 °F 20.6 °F 12.7 °F 50% 29.96 in 10.0 mi SSE 9.2 mph - N/A   Scattered Clouds
12:35 AM 29.3 °F 20.2 °F 13.1 °F 51% 29.94 in 10.0 mi SSE 10.4 mph - N/A   Scattered Clouds
1:15 AM 30.7 °F 22.0 °F 12.7 °F 47% 29.92 in 10.0 mi South 10.4 mph - N/A   Scattered Clouds
1:35 AM 30.9 °F 21.7 °F 12.6 °F 47% 29.90 in 10.0 mi South 11.5 mph - N/A   Scattered Clouds
1:55 AM 30.7 °F 21.4 °F 12.6 °F 47% 29.89 in 10.0 mi South 11.5 mph - N/A   Scattered Clouds
2:15 AM 30.2 °F 21.3 °F 12.9 °F 49% 29.88 in 10.0 mi SSE 10.4 mph - N/A   Scattered Clouds
2:35 AM 30.0 °F 21.1 °F 13.1 °F 49% 29.87 in 10.0 mi SSE 10.4 mph - N/A   Scattered Clouds
2:55 AM 30.0 °F 21.7 °F 13.3 °F 50% 29.86 in 10.0 mi SSE 9.2 mph - N/A   Scattered Clouds
3:15 AM 29.8 °F 20.9 °F 13.8 °F 51% 29.83 in 10.0 mi SSE 10.4 mph - N/A   Scattered Clouds
3:35 AM 30.0 °F 21.7 °F 14.0 °F 51% 29.82 in 10.0 mi SSE 9.2 mph - N/A   Clear
3:55 AM 30.2 °F 21.3 °F 14.0 °F 51% 29.80 in 10.0 mi South 10.4 mph - N/A   Clear
4:15 AM 30.0 °F 21.7 °F 14.4 °F 52% 29.79 in 10.0 mi South 9.2 mph - N/A   Clear
4:35 AM 30.0 °F 21.1 °F 14.5 °F 53% 29.77 in 10.0 mi South 10.4 mph - N/A   Scattered Clouds
4:55 AM 30.0 °F 20.5 °F 14.7 °F 53% 29.75 in 10.0 mi South 11.5 mph - N/A   Scattered Clouds
5:15 AM 30.0 °F 22.4 °F 14.9 °F 53% 29.75 in 10.0 mi South 8.1 mph - N/A   Scattered Clouds
5:35 AM 30.0 °F 22.4 °F 14.9 °F 53% 29.74 in 10.0 mi South 8.1 mph - N/A   Scattered Clouds
5:55 AM 30.0 °F 21.7 °F 15.4 °F 55% 29.73 in 10.0 mi South 9.2 mph - N/A   Scattered Clouds
6:15 AM 30.9 °F 22.8 °F 15.6 °F 53% 29.71 in 10.0 mi South 9.2 mph - N/A   Scattered Clouds
6:35 AM 30.9 °F 21.7 °F 15.8 °F 54% 29.71 in 10.0 mi SSW 11.5 mph - N/A   Clear
6:55 AM 31.1 °F 23.7 °F 16.0 °F 54% 29.69 in 10.0 mi South 8.1 mph - N/A   Clear
7:15 AM 30.0 °F 22.4 °F 16.0 °F 56% 29.68 in 10.0 mi ESE 8.1 mph - N/A   Clear
7:35 AM 29.7 °F 21.3 °F 16.0 °F 57% 29.67 in 10.0 mi South 9.2 mph - N/A   Clear
7:55 AM 30.0 °F 22.4 °F 16.3 °F 57% 29.66 in 10.0 mi South 8.1 mph - N/A   Clear
8:15 AM 30.9 °F 23.5 °F 17.2 °F 57% 29.66 in 10.0 mi South 8.1 mph - N/A   Clear
8:35 AM 32.0 °F 24.8 °F 17.8 °F 56% 29.64 in 10.0 mi South 8.1 mph - N/A   Clear
8:55 AM 33.1 °F 25.5 °F 18.3 °F 55% 29.63 in 10.0 mi South 9.2 mph - N/A   Clear
9:15 AM 34.7 °F 26.9 °F 18.7 °F 52% 29.62 in 10.0 mi SSW 10.4 mph - N/A   Clear
9:35 AM 37.4 °F 29.3 °F 19.6 °F 49% 29.61 in 10.0 mi SSW 12.7 mph - N/A   Clear
9:55 AM 38.5 °F 30.3 °F 19.9 °F 47% 29.60 in 10.0 mi South 13.8 mph - N/A   Clear
10:15 AM 39.4 °F 31.1 °F 20.1 °F 46% 29.59 in 10.0 mi South 15.0 mph - N/A   Clear
10:35 AM 40.1 °F 33.2 °F 20.5 °F 45% 29.60 in 10.0 mi SW 11.5 mph - N/A   Clear
10:55 AM 40.8 °F 34.1 °F 20.8 °F 45% 29.59 in 10.0 mi SW 11.5 mph - N/A   Clear
11:15 AM 42.1 °F 36.1 °F 21.6 °F 44% 29.58 in 10.0 mi SW 10.4 mph - N/A   Clear
11:35 AM 43.2 °F 37.9 °F 21.7 °F 43% 29.57 in 10.0 mi SW 9.2 mph - N/A   Clear
11:55 AM 44.8 °F 41.0 °F 22.1 °F 41% 29.54 in 10.0 mi SSW 6.9 mph - N/A   Clear
12:15 PM 46.4 °F 41.5 °F 22.3 °F 39% 29.53 in 10.0 mi SSW 10.4 mph - N/A   Clear
12:35 PM 48.7 °F - 22.3 °F 35% 29.51 in 10.0 mi South 11.5 mph - N/A   Clear
12:55 PM 51.1 °F - 22.8 °F 33% 29.51 in 10.0 mi SSW 12.7 mph - N/A   Clear
1:15 PM 53.1 °F - 23.2 °F 31% 29.50 in 10.0 mi SSW 15.0 mph - N/A   Clear
1:35 PM 55.6 °F - 23.5 °F 29% 29.48 in 10.0 mi South 13.8 mph - N/A   Clear
1:55 PM 57.2 °F - 23.5 °F 27% 29.47 in 10.0 mi South 12.7 mph 19.6 mph N/A   Clear
2:15 PM 58.3 °F - 23.5 °F 26% 29.44 in 10.0 mi South 15.0 mph - N/A   Clear
2:35 PM 60.1 °F - 23.7 °F 25% 29.42 in 10.0 mi SSE 15.0 mph 19.6 mph N/A   Clear
2:55 PM 60.8 °F - 23.7 °F 24% 29.41 in 10.0 mi South 13.8 mph 19.6 mph N/A   Clear
3:15 PM 62.1 °F - 23.7 °F 23% 29.40 in 10.0 mi South 16.1 mph 23.0 mph N/A   Clear
3:35 PM 62.4 °F - 23.7 °F 23% 29.39 in 10.0 mi South 16.1 mph 19.6 mph N/A   Clear
3:55 PM 63.5 °F - 23.5 °F 22% 29.38 in 10.0 mi South 17.3 mph 23.0 mph N/A   Clear
4:15 PM 63.9 °F - 23.5 °F 22% 29.38 in 10.0 mi South 17.3 mph 26.5 mph N/A   Clear
4:35 PM 65.3 °F - 23.5 °F 20% 29.37 in 10.0 mi SSW 20.7 mph 25.3 mph N/A   Clear
4:55 PM 63.5 °F - 23.7 °F 22% 29.36 in 10.0 mi South 20.7 mph 25.3 mph N/A   Clear
5:15 PM 63.3 °F - 23.4 °F 22% 29.35 in 10.0 mi South 18.4 mph 24.2 mph N/A   Clear
5:35 PM 63.9 °F - 23.4 °F 21% 29.35 in 10.0 mi South 19.6 mph 24.2 mph N/A   Clear
5:55 PM 62.8 °F - 23.5 °F 22% 29.34 in 10.0 mi South 17.3 mph 21.9 mph N/A   Clear
6:15 PM 62.2 °F - 23.4 °F 23% 29.34 in 10.0 mi South 12.7 mph 24.2 mph N/A   Clear
6:35 PM 61.0 °F - 23.5 °F 24% 29.32 in 10.0 mi South 10.4 mph 16.1 mph N/A   Clear
6:55 PM 59.7 °F - 23.5 °F 25% 29.32 in 10.0 mi SSE 10.4 mph - N/A   Clear
7:15 PM 58.1 °F - 23.7 °F 27% 29.32 in 10.0 mi SSE 8.1 mph - N/A   Clear
7:35 PM 58.5 °F - 23.9 °F 26% 29.32 in 10.0 mi SSE 9.2 mph - N/A   Clear
7:55 PM 55.9 °F - 23.7 °F 29% 29.32 in 10.0 mi SE 9.2 mph - N/A   Clear
8:15 PM 54.5 °F - 23.7 °F 30% 29.32 in 10.0 mi SE 10.4 mph - N/A   Clear
8:35 PM 53.4 °F - 23.7 °F 32% 29.32 in 10.0 mi SE 9.2 mph - N/A   Clear
8:55 PM 54.7 °F - 24.1 °F 31% 29.32 in 10.0 mi SSE 11.5 mph 16.1 mph N/A   Clear
9:15 PM 54.0 °F - 24.3 °F 32% 29.32 in 10.0 mi SSE 10.4 mph - N/A   Clear
9:35 PM 52.7 °F - 24.4 °F 33% 29.33 in 10.0 mi SSE 12.7 mph - N/A   Clear
9:55 PM 52.7 °F - 24.8 °F 34% 29.33 in 10.0 mi SSE 11.5 mph - N/A   Clear
10:35 PM 51.4 °F - 24.8 °F 35% 29.33 in 10.0 mi SSE 13.8 mph - N/A   Clear
10:55 PM 50.4 °F - 25.2 °F 37% 29.34 in 10.0 mi SSE 12.7 mph - N/A   Clear
11:15 PM 50.7 °F - 25.3 °F 37% 29.34 in 10.0 mi SSE 12.7 mph 17.3 mph N/A   Clear
11:35 PM 49.6 °F - 25.7 °F 39% 29.34 in 10.0 mi SE 9.2 mph - N/A   Clear
11:55 PM 49.3 °F - 26.4 °F 41% 29.34 in 10.0 mi SE 9.2 mph - N/A   Clear